Wind_Speed
3 3 3 3 3 3 3 4 3 3 3 2 2 1 1 1 1 1 1 2 2 2 2 2 3 2 2 3 3 3 2 2 2 2 3 3 2 3 3 3 4 4 5
5 4 4 5 5 4 4 4 4 4 3 3 3 2 3 3 2 2 2 2 2 2 3 3 3 3 3 3 4 3 3 3 3 3 3 4 3 4 4 5 5 5 5
5 5 5 6 6 5 5 5 5 5 5 4 4 4 4 3 3 3 3 4 4 4 3 4 4 4 4 4 4 4 4 4 4 4 4 5 5 5 6 6 6 5 6
6 6 6 6 7 6 6 6 6 6 6 5 5 4 4 4 3 4 4 4 4 5 5 4 4 4 5 5 5 5 5 5 5 5 5 5 6 6 7 7 7 7 7
7 6 6 7 7 7 7 6 6 6 7 7 6 6 5 5 4 4 4 4 5 5 5 5 5 5 5 6 7 7 6 6 5 5 6 6 6 7 7 7 8 7 7
7 7 7 7 7 7 7 7 8 8 8 8 8 7 6 6 6 5 5 5 5 6 6 6 6 6 5 6 7 8 8 7 7 7 7 7 7 7 8 8 8 8 7
8 7 7 7 7 8 8 9 9 9 9 9 8 8 7 7 6 6 6 6 6 6 6 6 7 7 7 7 8 8 8 8 8 8 8 8 8 9 8 9 9 9 8
9 8 8 8 8 9 9 9 9 9 9 9 9 9 8 8 8 7 7 7 7 7 7 7 7 8 7 8 8 8 8 8 8 8 8 8 8 9 9 9 11 10 10
9 9 9 9 9 9 9 9 9 10 10 10 9 9 8 8 9 8 8 7 7 8 8 8 8 9 9 9 9 9 9 9 9 9 9 10 10 10 10 10 11 12 12
10 9 9 9 9 8 9 9 9 10 10 10 9 9 9 9 10 9 9 8 8 9 9 8 9 9 9 9 9 10 9 9 9 10 10 11 11 12 11 11 12 12 12
10 10 10 9 8 8 9 9 9 9 10 10 10 9 10 10 9 10 10 10 9 9 10 9 9 9 9 9 9 10 10 10 10 11 11 12 12 13 13 12 12 12 13
10 9 10 9 8 8 9 9 9 10 10 9 10 9 9 9 9 10 10 10 10 11 10 10 10 10 10 10 10 10 11 12 12 12 12 12 12 12 12 13 13 13 14
9 10 10 10 9 9 9 9 10 10 10 10 10 10 10 10 9 9 10 11 11 11 11 10 10 10 11 11 11 11 11 11 12 12 12 12 12 13 13 13 13 14 14
10 11 10 10 10 10 10 9 9 10 10 11 11 10 10 10 10 10 10 10 11 12 12 11 11 11 11 12 12 12 12 12 12 12 12 12 13 13 14 14 14 14 15
10 10 11 11 10 10 10 9 9 10 9 10 10 10 10 10 10 11 11 11 11 12 12 12 12 12 12 12 13 12 12 12 13 13 13 13 13 13 14 14 15 15 15
11 10 10 10 9 9 10 9 10 11 9 9 9 9 10 9 10 11 11 11 12 12 13 13 13 13 13 13 13 13 13 13 13 14 14 14 13 14 14 16 16 16 16
11 10 10 10 10 10 10 10 10 10 9 9 8 9 10 10 11 11 12 12 13 14 14 14 13 13 14 14 14 14 14 14 14 15 14 14 14 15 15 16 17 17 18
11 10 10 10 10 10 10 10 10 9 9 9 9 9 10 11 11 12 12 13 14 14 14 14 14 14 14 15 15 14 15 15 15 15 15 14 14 15 16 16 16 17 18
12 11 11 11 10 10 10 10 10 9 9 9 9 10 10 10 11 12 13 13 14 14 14 15 15 15 15 15 16 15 15 15 15 16 16 16 16 16 16 17 18 18 18
12 12 12 12 11 10 10 10 10 10 10 10 10 10 10 11 11 12 13 13 14 14 14 14 14 15 15 15 15 15 15 16 16 16 16 16 17 16 16 17 18 19 19
12 12 13 12 11 11 11 11 11 11 11 11 10 10 10 11 11 12 12 13 14 13 14 14 14 14 15 15 15 15 15 16 16 16 16 17 17 17 17 17 18 19 19
14 13 13 12 12 11 12 12 11 11 11 11 11 11 11 12 12 12 12 13 13 13 14 14 14 15 14 15 15 15 15 15 15 16 17 17 17 17 18 18 18 18 18
13 13 13 12 12 12 12 12 11 11 11 11 12 12 12 12 12 12 13 14 14 14 14 14 15 14 14 15 14 15 16 16 16 16 16 17 18 18 19 19 19 19 20
13 13 12 12 12 12 12 12 12 12 11 11 11 12 12 12 12 12 12 13 13 13 13 13 14 14 14 14 15 16 16 17 17 16 17 18 19 19 20 20 20 21 22
13 13 13 12 12 11 12 11 11 11 11 11 11 11 11 11 12 12 12 12 12 12 12 13 14 14 14 15 16 16 16 17 17 17 17 18 18 19 20 21 22 22 23
13 13 12 12 12 12 11 11 11 11 11 11 11 11 11 12 12 13 13 12 12 12 13 14 14 15 15 15 16 16 16 17 18 18 17 18 18 19 20 21 22 23 23
Wind_Direction
319 319 311 318 310 308 300 289 279 283 284 291 296 282 258 235 222 200 194 194 193 205 206 214 211 214 218 212 201 199 199 210 204 189 200 191 188 185 190 189 189 195 195
313 308 302 305 304 299 287 283 284 283 283 286 286 275 264 250 243 238 234 234 230 233 229 232 229 222 224 220 215 218 214 207 218 211 204 202 201 198 199 198 195 196 196
310 305 305 306 303 295 286 280 280 281 280 282 283 279 266 255 251 248 249 244 247 252 251 242 235 227 224 225 224 227 221 217 219 217 203 199 203 203 207 204 210 214 215
310 302 302 303 301 294 286 277 271 270 271 273 277 277 275 266 260 252 253 247 250 257 248 242 233 232 231 231 232 230 224 213 221 224 213 209 208 206 211 214 220 220 223
311 300 296 298 296 291 286 281 272 268 268 271 274 273 272 270 258 252 248 248 251 255 250 240 235 237 238 235 233 232 228 218 224 226 222 221 223 221 220 226 229 226 231
309 304 296 296 293 287 284 281 277 269 268 269 272 272 266 267 261 255 248 248 250 251 249 241 237 240 237 239 236 232 229 231 230 235 235 236 237 234 231 233 234 235 231
308 304 299 298 295 288 284 280 276 271 269 269 270 271 261 256 258 255 253 252 248 249 247 241 238 238 237 241 238 236 238 237 242 243 241 240 240 241 239 239 231 236 235
305 301 297 296 297 293 282 278 276 272 270 270 270 269 261 256 255 254 252 252 250 248 245 240 241 243 246 248 245 242 244 244 251 252 244 238 240 242 241 240 236 238 236
303 300 297 294 293 294 285 279 276 273 270 269 268 267 262 255 251 250 249 247 247 244 241 241 247 250 249 247 245 246 246 246 248 248 247 241 239 240 241 238 238 239 235
301 297 294 290 289 293 287 280 274 269 268 267 265 261 256 254 252 248 250 249 248 242 239 239 245 251 251 251 252 249 246 247 246 248 249 247 245 243 243 243 239 238 238
301 295 293 287 286 290 289 283 274 271 267 263 257 255 254 253 249 249 248 248 247 244 240 241 245 248 251 253 254 250 248 251 250 251 253 251 248 247 244 244 239 239 242
296 296 295 290 284 286 288 283 277 276 268 260 256 256 252 248 247 247 249 250 243 240 241 243 244 246 248 251 252 251 254 253 256 256 255 255 251 245 246 247 242 243 244
295 295 297 294 292 290 288 281 278 277 272 268 264 261 255 247 250 250 254 251 240 238 241 243 245 249 248 251 255 258 258 253 259 257 254 253 252 249 251 251 246 243 242
296 294 297 293 291 293 291 280 278 277 275 273 267 259 256 250 251 253 256 252 244 243 248 249 251 254 254 254 257 259 258 257 258 254 252 251 251 251 251 250 248 247 244
295 294 296 294 288 289 291 282 278 276 276 273 262 257 254 250 250 253 249 246 244 247 249 251 252 258 261 260 258 257 258 258 259 254 251 250 249 250 251 248 249 251 247
295 292 294 294 290 291 292 283 278 278 279 271 261 253 251 252 253 255 251 250 250 250 251 255 256 262 264 261 259 259 260 261 260 254 254 253 252 253 251 249 250 250 251
290 288 290 293 289 288 290 287 284 278 282 276 265 255 253 251 254 256 255 254 257 256 255 256 256 259 261 259 259 259 261 261 261 258 257 256 256 253 252 253 253 251 251
283 288 289 286 287 286 287 286 281 281 281 276 268 262 260 257 256 258 259 259 260 259 255 256 258 259 261 262 262 261 262 263 262 261 258 258 259 258 254 252 251 252 252
281 287 284 282 284 287 284 284 281 281 283 279 271 265 260 261 261 260 261 261 260 260 256 256 257 259 260 262 261 260 260 263 263 260 257 257 259 259 259 255 251 251 252
281 282 277 278 280 283 281 282 281 283 282 279 272 266 262 262 264 264 263 262 260 260 261 262 264 260 258 260 261 262 262 263 263 260 258 259 262 263 261 257 253 253 253
282 281 273 274 276 279 278 279 280 281 278 276 275 272 266 263 265 266 266 267 265 261 262 265 263 262 258 260 262 264 265 265 263 261 260 259 261 262 260 258 255 253 252
278 279 274 272 273 273 277 277 274 275 274 271 273 274 271 268 268 268 268 268 266 261 262 263 260 260 261 261 264 266 265 266 264 263 262 260 261 262 261 261 258 255 253
277 278 272 274 275 274 274 276 273 275 274 274 272 273 277 275 272 270 271 270 266 266 265 265 263 260 263 264 265 266 266 266 268 266 266 264 263 262 262 262 262 260 258
276 275 274 274 274 274 275 277 275 273 272 273 273 274 275 274 274 274 275 274 268 264 264 265 266 265 266 265 265 265 265 267 269 267 266 265 263 263 261 261 260 258 259
274 272 272 272 273 276 277 275 273 273 274 273 273 274 275 276 276 273 279 277 270 265 269 271 271 270 269 268 269 267 267 268 267 269 269 268 268 267 266 263 263 261 260
272 270 268 271 274 278 279 276 274 275 273 273 274 274 276 278 281 278 278 273 268 268 272 271 272 273 272 269 268 267 266 268 267 268 269 270 269 270 269 266 265 263 263
Height
5887 5886 5885 5885 5884 5884 5883 5883 5882 5882 5882 5881 5881 5880 5880 5881 5881 5881 5881 5880 5881 5881 5881 5881 5881 5881 5882 5882 5883 5883 5883 5884 5884 5884 5884 5884 5885 5886 5887 5887 5887 5888 5888
5886 5885 5884 5884 5883 5882 5882 5881 5881 5881 5880 5880 5879 5879 5879 5879 5879 5879 5880 5880 5880 5880 5880 5880 5881 5881 5881 5881 5882 5882 5882 5883 5883 5883 5883 5884 5885 5885 5886 5886 5887 5888 5889
5884 5883 5882 5882 5881 5881 5880 5880 5879 5879 5879 5878 5878 5878 5878 5878 5878 5878 5878 5878 5879 5879 5879 5879 5879 5880 5880 5880 5881 5881 5881 5882 5882 5883 5883 5884 5884 5884 5885 5885 5887 5888 5888
5882 5882 5881 5880 5879 5879 5879 5878 5878 5878 5877 5877 5876 5876 5876 5876 5876 5876 5877 5877 5877 5878 5878 5878 5878 5878 5879 5879 5879 5880 5880 5881 5881 5882 5882 5883 5883 5884 5884 5885 5886 5887 5888
5881 5880 5879 5878 5877 5877 5876 5876 5876 5876 5876 5875 5874 5874 5874 5874 5875 5875 5875 5875 5876 5876 5876 5876 5876 5877 5877 5877 5878 5878 5879 5880 5880 5881 5881 5882 5882 5883 5884 5885 5885 5886 5887
5879 5878 5877 5876 5875 5874 5874 5874 5874 5874 5873 5873 5872 5872 5872 5872 5873 5873 5873 5874 5874 5874 5874 5875 5875 5875 5876 5876 5876 5877 5877 5878 5879 5879 5880 5881 5881 5882 5883 5883 5884 5885 5885
5877 5875 5875 5874 5873 5872 5872 5871 5871 5871 5871 5871 5870 5870 5870 5870 5870 5871 5871 5871 5872 5872 5873 5873 5873 5873 5874 5874 5874 5875 5875 5876 5877 5878 5878 5879 5880 5880 5881 5881 5882 5883 5884
5874 5873 5872 5871 5870 5870 5869 5869 5869 5868 5868 5868 5868 5868 5867 5867 5868 5869 5869 5869 5870 5870 5871 5871 5871 5871 5872 5872 5873 5873 5874 5875 5875 5876 5877 5877 5878 5878 5879 5880 5881 5881 5882
5872 5871 5870 5869 5868 5867 5866 5866 5866 5865 5865 5865 5865 5865 5865 5864 5866 5866 5867 5867 5867 5868 5868 5868 5869 5869 5870 5870 5871 5871 5872 5873 5873 5874 5874 5875 5876 5876 5877 5878 5878 5879 5880
5870 5869 5868 5866 5865 5864 5864 5863 5863 5863 5862 5862 5862 5862 5862 5862 5863 5864 5864 5864 5865 5865 5866 5866 5866 5866 5867 5868 5868 5869 5870 5870 5871 5871 5872 5872 5873 5873 5874 5875 5876 5877 5878
5867 5866 5865 5864 5863 5862 5861 5860 5860 5860 5859 5859 5859 5859 5859 5859 5859 5860 5861 5861 5862 5862 5863 5863 5864 5864 5865 5865 5866 5866 5867 5868 5868 5869 5869 5870 5870 5871 5872 5872 5873 5874 5875
5864 5863 5862 5861 5860 5859 5859 5858 5857 5857 5856 5856 5856 5855 5855 5856 5856 5857 5858 5858 5859 5860 5860 5861 5861 5861 5862 5862 5863 5863 5864 5865 5865 5866 5866 5867 5868 5868 5869 5870 5870 5871 5872
5862 5861 5860 5859 5858 5857 5856 5855 5855 5854 5853 5853 5852 5852 5852 5853 5853 5854 5855 5855 5856 5857 5857 5858 5858 5859 5859 5860 5860 5861 5861 5862 5862 5863 5863 5864 5865 5865 5866 5867 5867 5868 5869
5860 5858 5857 5856 5855 5855 5854 5853 5852 5851 5850 5850 5849 5849 5850 5850 5851 5851 5852 5853 5853 5854 5855 5855 5855 5856 5856 5857 5857 5858 5858 5859 5859 5860 5860 5861 5861 5862 5862 5863 5864 5865 5866
5857 5856 5855 5854 5853 5852 5851 5850 5849 5849 5848 5847 5847 5847 5847 5848 5848 5848 5849 5849 5850 5851 5852 5852 5853 5853 5853 5854 5854 5854 5855 5856 5856 5856 5857 5858 5858 5859 5859 5860 5860 5861 5862
5854 5853 5852 5851 5850 5849 5848 5847 5847 5846 5845 5845 5844 5845 5845 5845 5845 5845 5846 5847 5847 5847 5848 5849 5849 5850 5850 5850 5851 5851 5852 5852 5852 5853 5853 5854 5854 5855 5855 5856 5857 5857 5858
5851 5850 5850 5849 5848 5847 5846 5845 5844 5843 5843 5843 5843 5842 5842 5842 5843 5843 5843 5844 5844 5844 5845 5845 5846 5847 5847 5847 5848 5848 5848 5849 5849 5849 5849 5850 5850 5851 5851 5852 5853 5854 5854
5848 5847 5847 5846 5845 5844 5843 5842 5842 5841 5841 5841 5840 5840 5840 5840 5839 5840 5840 5840 5841 5841 5841 5842 5843 5843 5843 5844 5844 5844 5845 5845 5845 5845 5846 5846 5846 5847 5847 5848 5849 5849 5850
5845 5845 5844 5843 5843 5842 5841 5840 5840 5839 5839 5838 5838 5838 5837 5837 5837 5837 5837 5837 5837 5837 5838 5838 5839 5839 5839 5840 5840 5840 5841 5841 5841 5841 5842 5842 5842 5842 5843 5844 5844 5845 5845
5842 5842 5841 5840 5839 5839 5838 5837 5837 5837 5836 5836 5835 5835 5834 5834 5834 5834 5834 5834 5834 5834 5834 5835 5835 5835 5835 5836 5836 5836 5836 5837 5837 5837 5837 5837 5838 5838 5838 5839 5839 5840 5841
5839 5838 5838 5837 5836 5836 5835 5834 5834 5834 5833 5833 5833 5832 5832 5831 5831 5831 5831 5831 5831 5831 5831 5831 5831 5832 5832 5832 5832 5832 5832 5832 5832 5833 5833 5833 5833 5833 5834 5834 5834 5835 5836
5836 5835 5835 5834 5833 5832 5832 5832 5831 5830 5830 5830 5829 5829 5829 5828 5828 5827 5827 5827 5827 5827 5828 5828 5828 5828 5828 5828 5828 5828 5828 5829 5828 5828 5828 5828 5829 5829 5829 5829 5829 5830 5830
5833 5832 5832 5831 5830 5829 5829 5828 5827 5827 5827 5826 5826 5826 5826 5825 5824 5824 5824 5824 5824 5824 5824 5824 5824 5824 5824 5824 5824 5824 5824 5824 5824 5824 5823 5824 5824 5824 5825 5825 5825 5825 5826
5829 5829 5828 5828 5827 5827 5826 5825 5825 5824 5824 5823 5823 5822 5822 5822 5821 5821 5820 5820 5820 5820 5820 5820 5820 5820 5820 5820 5819 5819 5819 5819 5819 5819 5819 5819 5819 5819 5820 5820 5820 5820 5820
5826 5825 5825 5825 5824 5824 5823 5823 5822 5822 5821 5820 5820 5819 5819 5819 5818 5818 5817 5817 5817 5817 5817 5817 5816 5816 5816 5815 5815 5814 5814 5814 5813 5814 5814 5814 5814 5814 5814 5814 5814 5815 5815
5823 5823 5823 5822 5822 5821 5820 5820 5819 5819 5818 5818 5817 5817 5816 5816 5815 5815 5814 5814 5814 5814 5813 5813 5813 5812 5812 5811 5810 5809 5809 5809 5809 5809 5809 5809 5809 5809 5809 5808 5809 5809 5809